Tracking 29511 objects as of 17-Sep-2024
HD Live streaming from Space Station
objects crossing your sky now

CZ-4C DEB

Track CZ-4C DEB now!
10-day predictions


NORAD ID: 39231
Int'l Code: 2013-037H
Perigee: 671.7 km
Apogee: 1,021.8 km
Inclination: 98.1 °
Period: 101.7 minutes
Semi major axis: 7217 km
RCS: Unknown
Launch date: July 19, 2013
Source: People's Republic of China (PRC)
Launch site: Taiyaun Space Center, China (TSC)

Note: This is SATELLITE DEBRIS
Your satellite tracking list
Your tracking list is empty




NASA's NSSDC Master Catalog

Two Line Element Set (TLE):
1 39231U 13037H   24260.93610450  .00002860  00000-0  11103-2 0  9998
2 39231  98.1318 318.5731 0242507 289.4308  68.0808 14.15793049570108
Source of the keplerian elements: AFSPC